ジャック彗星

C/2015 F4 ( Jacques )

English version
Home page
Updated on August 6, 2016

---------------------------------------------------------------------

・ プロフィール

発見日 2015年3月27日
発見光度 16.2等
発見者 C. Jacques (Belo Horizonte, MG, Brazil)

・ 写真集

・ 軌道要素

Epoch 2015 Aug. 6.0 TT = JDT 2457240.5
T 2015 Aug. 10.86272 TT                                 MPCW
q   1.6439256            (2000.0)            P               Q
z  +0.0085932      Peri.   36.34636     +0.59749436     +0.34811549
 +/-0.0000004      Node   285.95816     -0.78897025     +0.41617009
e   0.9858734      Incl.   48.70505     +0.14327052     +0.84001075
From 2702 observations 2015 Mar. 27-2016 Feb. 29, mean residual 0".4.

・ 星図

・ 光度変化

        m1 =  7.5 + 5 logΔ + 18.0 log r  [   ,135]  (              〜2015年12月23日)
        m1 = 10.5 + 5 logΔ + 10.0 log r  [135,   ]  (2015年12月23日〜              )

---------------------------------------------------------------------

軌道要素はM.P.E.C. 2016-H35に掲載されたものです。
星図はステラナビゲータ Ver.8 (アストロアーツ) で作成したものです。
光度グラフはComet for Windowsで作成したものです。

---------------------------------------------------------------------

Copyright(C) Seiichi Yoshida (comet@aerith.net). All rights reserved.